Weather in Pyaozerskiy

Russia / Republic of Karelia     65°45′51″N   31°04′59″E
temp.,
°C
wind,
m/s
gust,
m/s
humid.,
%
clouds,
%
prec.,
mm/h
press.,
hPa
HPBL,
m
1 march, mon
mon100:00+1wsw61297100 0.0 1006454
03:00+3wsw61495100 0.0 1005773
06:00+2wsw41397100 0.0 1003708
09:00+2w51584100 0.0 1002758
12:00+2w5129378 0.1 1000744
15:00+2w6128258 0.1 999939
18:000w6148387 0.0 997717
21:00−2wnw5167860 0.0 997827
2 march, tue
tue200:00−1wnw8177633 0.0 9961065
03:00−3nw6147756 0.0 999979
06:00−5nw6148122 0.0 1002759
09:00−6nw6148211 0.0 1005712
12:00−4nw612710 0.0 10071296
15:00−3nw512690 0.0 10091436
18:00−4wnw4128642 0.0 1009592
21:00−4wnw4128850 0.0 1008452
3 march, wed
wed300:00−4wnw4129054 0.0 1007442
03:00−5wnw4128829 0.0 1008447
06:00−6wnw4119015 0.0 1007391
09:00−7w389356 0.0 1007271
12:00−4w368759 0.0 1004341
15:00−3sw238675 0.0 1001294
18:00−4sw1297100 0.4 99858
21:00−5n2697100 0.8 997211
4 march, thu
thu400:00−8nnw259680 0.0 997127
03:00−7n499587 0.2 998387
06:00−8n5128799 0.2 1000527
09:00−9nnw3118872 0.2 1000440
12:00−7nnw5108261 0.0 1000695
15:00−6nw588066 0.0 1000789
18:00−8wnw399199 0.0 1000363
21:00−7n4109398 0.3 1002553
5 march, fri
fri500:00−9nne4894100 0.2 1004527
03:00−13nne2294100 0.3 100655
06:00−13nnw1296100 0.2 100831
09:00−13nw239489 0.2 101075
12:00−9n258022 0.0 1010500
15:00−7wnw367530 0.0 1010790
18:00−9nw389076 0.0 1010346
21:00−10nw3109085 0.0 1010290